Madison, WI

2:47 AM CDT on September 19, 2019 (GMT -0500)
Dane County Regional-Truax

Weather History for KMSN - July, 2019

Change the Weather History Date:

Thursday, July 25, 2019

  Actual Average Record
Temperature  
Mean Temperature 74 °F 71 °F  
Max Temperature 84 °F 81 °F 98 °F (1934)
Min Temperature 64 °F 61 °F 50 °F (1962)
Degree Days  
Heating Degree Days 0 0  
Month to date heating degree days 0  
Since 1 June heating degree days 60  
Since 1 July heating degree days 0  
Cooling Degree Days 9 6  
Month to date cooling degree days 172  
Year to date cooling degree days 322  
Since 1 June cooling degree days 292  
Growing Degree Days 24 (Base 50)    
Moisture  
Dew Point 61 °F    
Average Humidity 63    
Maximum Humidity 90    
Minimum Humidity 35    
Precipitation  
Precipitation 0.00 in 0.14 in 2.67 in (1985)
Month to date precipitation 3.43  
Year to date precipitation 19.80  
Snow  
Snow 0.00 in 0.00 in 0.00 in ()
Month to date snowfall 0.0  
Since 1 June snowfall 0.0  
Since 1 July snowfall 0.0  
Snow Depth -    
Sea Level Pressure  
Sea Level Pressure 30.14 in    
Wind  
Wind Speed 3 mph (SSW)    
Max Wind Speed 12 mph    
Max Gust Speed 18 mph    
Visibility 10 miles    
Events      
T = Trace of Precipitation, MM = Missing Value Source: NWS Daily Summary

Daily Weather History Graph

Daily Weather History Graph

Search for Another Location

Airport or City:

Astronomy

Jul. 25, 2019 Rise Set
Actual Time 5:40 AM CDT 8:26 PM CDT
Civil Twilight 5:07 AM CDT 8:59 PM CDT
Nautical Twilight 4:25 AM CDT 9:41 PM CDT
Astronomical Twilight 3:37 AM CDT 10:29 PM CDT
Moon 12:30 AM CDT (7/25) 2:04 PM CDT (7/25)
Length of Visible Light 15h 52m
Length of Day
14h 46m
Last Quarter, 44% of the Moon is Illuminated
Jul 25
Last Quarter
Jul 31
New
Aug 7
First Quarter
Aug 15
Full
Aug 23
Last Quarter

Hourly Weather History & Observations

Time (CDT) Temp. Heat Index Dew Point Humidity Pressure Visibility Wind Dir Wind Speed Gust Speed Precip Events Conditions
12:53 AM 66.9 °F - 63.0 °F 87% 30.11 in 10.0 mi Calm Calm - N/A   Clear
1:53 AM 66.0 °F - 62.1 °F 87% 30.12 in 10.0 mi Calm Calm - N/A   Clear
2:53 AM 66.0 °F - 62.1 °F 87% 30.12 in 10.0 mi Calm Calm - N/A   Clear
3:53 AM 64.9 °F - 62.1 °F 90% 30.13 in 10.0 mi Calm Calm - N/A   Partly Cloudy
4:53 AM 66.0 °F - 62.1 °F 87% 30.14 in 10.0 mi Calm Calm - N/A   Scattered Clouds
5:53 AM 64.9 °F - 62.1 °F 90% 30.16 in 10.0 mi Calm Calm - N/A   Scattered Clouds
6:53 AM 69.1 °F - 63.0 °F 81% 30.17 in 10.0 mi Calm Calm - N/A   Scattered Clouds
7:53 AM 73.0 °F - 62.1 °F 68% 30.18 in 10.0 mi Calm Calm - N/A   Partly Cloudy
8:53 AM 75.9 °F - 60.1 °F 58% 30.17 in 10.0 mi SSW 5.8 mph - N/A   Partly Cloudy
9:53 AM 78.1 °F - 60.1 °F 54% 30.16 in 10.0 mi SSW 6.9 mph - N/A   Partly Cloudy
10:53 AM 79.0 °F - 59.0 °F 50% 30.16 in 10.0 mi SW 6.9 mph - N/A   Scattered Clouds
11:53 AM 82.0 °F 82.4 °F 60.1 °F 47% 30.16 in 10.0 mi SW 8.1 mph - N/A   Scattered Clouds
12:53 PM 82.0 °F 82.1 °F 59.0 °F 45% 30.15 in 10.0 mi SW 8.1 mph - N/A   Mostly Cloudy
1:53 PM 82.9 °F 82.8 °F 59.0 °F 44% 30.14 in 10.0 mi South 10.4 mph - N/A   Mostly Cloudy
2:53 PM 81.0 °F 81.6 °F 60.1 °F 49% 30.14 in 10.0 mi SW 6.9 mph 16.1 mph N/A   Mostly Cloudy
3:53 PM 82.9 °F 83.3 °F 61.0 °F 47% 30.12 in 10.0 mi SSW 10.4 mph 18.4 mph N/A   Mostly Cloudy
4:53 PM 82.0 °F 82.4 °F 60.1 °F 47% 30.12 in 10.0 mi SSW 11.5 mph - N/A   Mostly Cloudy
5:53 PM 82.0 °F 82.4 °F 60.1 °F 47% 30.12 in 10.0 mi SW 9.2 mph 18.4 mph N/A   Mostly Cloudy
6:53 PM 80.1 °F 80.7 °F 59.0 °F 48% 30.11 in 10.0 mi Variable 5.8 mph - N/A   Scattered Clouds
7:53 PM 78.1 °F - 61.0 °F 56% 30.11 in 10.0 mi South 5.8 mph - N/A   Mostly Cloudy
8:53 PM 75.9 °F - 61.0 °F 60% 30.11 in 10.0 mi SSW 5.8 mph - N/A   Scattered Clouds
9:53 PM 75.0 °F - 61.0 °F 62% 30.12 in 10.0 mi South 8.1 mph - N/A   Clear
10:53 PM 73.9 °F - 61.0 °F 64% 30.12 in 10.0 mi South 10.4 mph - N/A   Partly Cloudy
11:53 PM 72.0 °F - 61.0 °F 68% 30.13 in 10.0 mi South 8.1 mph - N/A   Clear